Reflectivity
-20 -20 -20 -20 -20 -20 -20 -20 -19 -20 -20 -20 -20 -20 -20 -20 -20 -20 -20 -20 -20 -20 -20 -20 -20 -20 -20 -20 -20 -20 -20 -20 -10 15 15 -20 -20 -20 -20 -18 1 2 -1 9
-20 -20 -20 -20 -20 -20 -20 -20 -20 -20 -20 -20 -20 -20 -18 -20 -20 -20 -20 -20 -3 -20 -20 -20 -20 -20 -20 -20 -20 -20 -20 -20 -20 -20 -20 -20 -20 -20 -20 -20 -20 -20 -20 -20
-20 -20 -20 -20 -20 -20 -20 -20 -20 -20 -20 -20 -18 13 8 -10 -20 -20 16 -17 -20 -20 -20 -20 -20 -20 -20 -20 -20 -20 -20 -20 -20 -20 -20 -20 -20 -20 -20 -20 -20 -20 -20 -20
-20 -20 -20 -20 -20 -20 -20 -20 -20 -20 -20 20 -20 -20 -20 -20 -20 -5 -20 -20 -20 -20 -20 -20 -20 -20 -20 -20 -20 -20 -20 -20 -20 -20 -20 -20 -20 -20 -20 -20 -20 -20 -20 -20
-14 -20 -20 -20 -20 -20 -20 -20 -20 -20 -20 -20 -20 -20 -20 -20 -20 -20 -20 -20 -20 -20 -20 -20 -20 -20 -20 -20 -20 -20 -20 -20 -20 -20 -20 -20 -20 -20 -20 -20 -20 -20 -20 -20
-1 4 -4 -20 -16 -19 -20 -20 -20 -20 -17 14 -20 16 13 30 -8 -20 -20 -20 -20 -20 -20 -20 -20 -20 -20 -20 -20 -20 -20 -20 -20 -20 -7 -19 -5 -19 -19 -20 -5 0 0 -7
4 9 -2 -20 -16 -20 -12 0 -8 -20 -20 -20 12 -12 -20 -20 -20 -20 -20 -20 -20 -20 -20 -20 -20 -20 -20 -20 -20 -20 -20 -20 -20 -20 -20 -6 1 -15 -2 -1 -4 2 7 2
-1 11 9 -6 -20 -20 -13 -20 0 -14 10 5 -8 -19 19 -12 -20 -20 -20 -20 -20 -20 -20 -20 -20 -20 -20 -20 -20 -20 -20 -20 -20 -20 -20 -20 -20 -20 -20 -20 -13 -2 1 -5
-17 5 -20 -3 -20 -20 -20 -20 -20 -20 -20 -13 -20 -13 -2 -20 -20 -20 -20 -20 -20 -20 -20 -20 -20 -20 -20 -20 -20 -20 -20 -20 -20 -20 -20 -20 -20 -20 -20 -20 -20 -20 -20 -1
-15 -20 -20 -20 -20 -20 -20 -20 -20 -20 -7 -20 -18 -20 -20 -20 -20 -20 -20 -20 -20 -20 -20 -20 -20 -20 -20 -20 -20 -20 -20 -20 -20 -20 -20 -20 -20 -20 -20 -20 -20 -20 -19 -3
-20 -20 -20 -20 -20 -20 -20 -20 -20 -12 -20 -20 -20 -20 -20 -20 -20 -20 -20 -20 -20 -20 -20 -20 -20 -20 -20 -20 -20 -20 -20 -20 -20 -20 -20 -20 -20 -20 -20 -20 -20 -20 -20 -4
1 -20 -9 -9 -20 -20 -20 -20 -20 -20 -20 -20 -20 -20 -20 -20 -20 -20 -20 -20 -20 -20 -20 -20 -20 -20 -20 -20 -20 -20 -20 -20 -20 -20 -20 -20 -20 -20 -20 -20 -20 -20 -20 -20
-20 -20 -20 -19 -20 -20 -20 -20 -20 -20 -7 -20 -20 -20 -20 -20 -20 -20 -20 -20 -20 -20 -20 -20 -20 -20 -20 -20 -20 -20 -20 -20 -20 -20 -20 -20 -20 -20 -17 -20 -20 -20 -20 -20
-20 -20 -20 -20 -20 -20 -20 -20 -20 -20 -20 -20 -20 -20 -20 -20 -20 -20 -20 -20 -20 -20 -20 -20 -20 -20 -20 -20 -20 -20 -20 -20 -20 -17 -17 -6 -1 -0 2 1 2 2 -1 -20
-20 -20 -20 -20 -20 -20 -20 -20 -20 -20 -20 -20 -20 -20 -20 -20 -20 -20 -20 -20 -20 -20 -20 -20 -20 -20 -20 -20 -20 -20 -20 -20 -16 -4 -4 -6 -1 -0 -2 -8 -3 -11 -20 -20
-20 -20 -20 -20 -20 -20 -20 -20 -20 -20 -20 -20 -20 -20 -20 -20 -20 -20 -20 -20 -20 -20 -20 -20 -20 -20 -20 -20 -20 -20 -19 -20 -20 -6 -6 -12 -5 -7 -20 -20 -20 -20 -20 -11
-20 -20 -20 -20 -20 -20 -20 -20 -20 -20 -20 -20 -20 -20 -20 -20 -20 -20 -20 -20 -20 -20 -20 -20 -20 -20 -20 -20 -20 -7 -3 -20 -20 -20 -20 -20 -20 -20 -20 -20 -20 -20 -20 -20
-20 -20 -20 -20 -20 -20 -20 -20 -20 -20 -20 -20 -20 -20 -20 -20 -20 -20 -20 -20 -20 -20 -20 -20 -20 -20 -20 -20 -20 -20 -20 -20 -20 -20 -20 -20 -20 -20 -20 -20 -20 -20 -20 -20
-20 -20 -20 -20 -20 -20 -20 -20 -20 -20 -20 -20 -20 -20 -20 -20 -20 -20 -20 -20 -20 -20 -5 -20 -20 -20 -20 -20 -20 -20 -20 -20 -20 -20 -20 -20 -20 -20 -20 -20 -20 -14 -3 -1
-20 -20 -20 -20 -20 -20 -20 -20 -20 -20 -20 -20 -20 -20 -20 -20 -20 -20 -20 -20 -20 -20 -20 -20 -20 -20 -20 -20 -20 -20 -20 -20 -20 -20 -20 -20 -16 -5 -6 -20 -20 -3 1 1
-20 -20 -20 -20 -20 -20 -20 -20 -20 -20 -20 -20 -20 -20 -20 -20 -20 -20 -20 -20 -1 -20 -20 -20 -20 -20 -20 -20 -20 -20 -20 -20 -20 -20 -20 -13 -3 -3 -4 -2 -3 -0 0 1
-20 -20 -20 -20 -20 -20 -14 -11 -20 -20 -20 -20 -20 -20 -20 -20 -20 -20 -20 -20 -20 -15 -20 -20 -20 -20 -20 -20 -20 -20 -20 -20 -20 -20 -20 -20 -16 -3 -2 -1 -1 -1 0 -0
-20 -20 -20 -20 -20 -20 -20 -20 -20 -20 -20 -20 -20 -20 -20 -20 -20 -20 -20 -16 -20 -7 -10 -11 -20 -20 -20 -20 -20 -20 -20 -20 -20 -20 -20 -5 -3 -2 -2 -1 -4 -2 -2 -2
-20 -20 -20 -20 -20 -20 -20 -20 -20 -20 -20 -20 -20 -20 -20 -20 -20 -20 -20 -20 -20 -6 -20 -20 -20 -20 -20 -20 -20 -20 -20 -20 -20 -5 -17 -20 -1 -3 -3 -3 -4 -6 -2 -5
-20 -20 -20 -20 -20 -20 -20 -20 -20 -20 -20 -20 -20 -20 -20 -20 -18 -20 -20 0 -19 -9 -4 -20 -20 -20 -4 -20 -20 -20 -20 -13 -6 -6 -6 -4 -5 -4 -2 -3 -6 -6 -18 -4
-20 -20 -20 -20 -20 -20 -20 -20 -20 -20 -20 -20 -20 -20 -20 -20 -19 -2 -8 -11 -3 -16 -2 -14 -14 -15 -20 -20 -20 -20 -20 -20 -16 -12 -20 -14 -5 -20 -5 -20 -15 -3 -3 -4
-20 -20 -20 -20 -20 -20 -20 -20 -20 -20 -8 -8 -5 7 1 -9 -0 -2 -16 1 0 0 -0 -2 -20 -17 -20 -20 -20 -20 -20 -20 -20 -20 -20 -6 -13 -4 -7 -20 -5 -5 -6 -5
Wind_Speed
12 13 14 16 16 16 18 18 19 23 22 25 22 22 18 10 7 15 13 12 9 7 5 4 2 1 3 5 6 6 8 9 7 2 2 3 5 7 10 14 14 15 14 18
9 14 17 20 14 18 22 22 23 24 26 21 20 11 8 6 9 11 11 11 11 9 8 4 3 3 4 6 6 7 8 9 10 11 12 11 11 11 14 12 14 15 17 17
13 11 10 14 8 16 18 18 18 19 21 17 18 13 8 4 8 9 11 11 10 8 6 5 4 3 4 5 6 7 8 10 11 11 12 13 13 13 14 16 15 17 17 18
11 11 15 10 6 8 12 15 18 16 12 13 9 6 5 1 8 9 11 11 10 5 5 5 4 4 4 5 6 7 9 9 10 11 12 12 13 13 14 13 16 16 18 19
10 11 14 12 17 14 7 15 17 8 9 10 6 3 2 3 7 9 10 10 10 9 7 5 4 5 6 6 6 7 8 9 10 10 11 11 12 12 12 12 13 13 15 18
11 12 10 5 2 5 8 15 7 3 5 6 5 9 4 5 6 10 10 10 10 11 10 8 7 6 6 6 5 5 7 7 7 9 9 10 10 10 10 11 11 10 12 13
13 13 12 10 5 3 8 3 3 6 8 12 11 4 6 9 10 10 10 10 10 9 8 7 7 6 6 7 5 4 6 6 7 6 4 5 7 8 8 9 9 9 9 10
12 16 20 1 4 7 7 6 8 10 12 11 5 5 9 10 11 11 11 11 10 8 7 6 6 6 6 6 6 5 6 6 7 7 6 6 8 7 8 8 8 9 9 9
8 5 3 4 7 12 14 13 12 12 9 8 5 5 9 11 11 11 11 10 8 8 8 6 6 5 6 6 5 5 6 6 7 6 7 7 8 9 8 9 8 8 8 9
8 6 11 10 13 15 13 8 9 10 9 9 9 11 13 12 11 10 10 9 8 9 9 7 6 4 6 6 5 5 6 6 5 7 5 8 7 7 8 9 9 9 9 9
14 14 13 15 11 8 9 6 7 5 7 8 9 13 13 13 12 10 10 9 9 8 8 8 7 7 6 5 4 5 5 5 5 4 6 5 6 7 6 8 9 8 9 9
12 14 14 11 11 10 9 9 7 5 6 7 10 12 13 12 11 11 10 10 9 9 9 9 8 7 6 5 4 4 4 4 5 4 4 5 5 3 6 6 6 8 11 10
17 19 15 7 7 10 10 7 6 7 9 10 10 11 13 11 12 10 11 10 10 10 9 9 8 7 6 5 5 5 5 4 3 4 4 4 4 5 6 5 5 5 7 11
19 16 16 18 11 7 8 7 7 8 8 9 10 11 12 11 11 12 11 10 10 10 10 9 9 7 5 6 7 6 5 4 3 3 4 4 4 4 4 5 5 3 7 9
22 21 21 18 5 7 9 10 10 9 9 9 10 12 12 13 13 12 10 10 9 9 8 9 9 7 6 5 5 4 1 4 4 3 3 3 4 4 4 5 5 6 6 6
16 14 11 8 10 10 11 11 10 10 10 11 12 12 12 12 12 11 11 11 11 10 10 8 8 7 6 5 4 4 4 4 3 3 2 3 3 4 4 5 5 6 6 8
17 13 10 13 13 13 12 11 10 10 11 10 11 11 11 11 10 9 9 7 8 9 9 9 8 6 4 2 2 1 1 2 2 2 3 3 4 4 4 5 5 5 6 7
17 11 10 13 12 12 12 11 8 11 11 12 10 10 12 12 12 11 10 10 9 9 9 9 8 6 4 4 2 2 1 1 2 2 2 3 4 4 4 5 5 5 6 6
15 11 8 8 10 12 12 10 10 11 10 11 11 12 11 10 12 12 12 10 10 10 9 9 10 8 6 4 2 1 1 1 1 2 3 1 2 3 4 5 5 5 6 6
8 8 9 9 10 11 10 9 12 11 11 12 11 12 13 11 12 12 12 11 9 5 12 11 10 7 6 5 2 2 1 1 1 1 3 4 3 4 4 3 4 5 6 6
8 9 10 10 11 11 11 11 12 12 13 11 13 13 12 12 11 11 12 9 9 11 11 12 7 6 5 5 3 3 1 1 0 1 2 2 2 3 4 4 5 5 6 6
9 10 10 10 10 10 9 9 10 12 12 12 11 11 12 12 11 10 7 4 9 12 9 7 6 6 6 4 3 2 2 1 2 1 1 2 3 3 4 4 5 6 6 7
8 10 10 9 10 12 11 10 10 11 12 11 12 13 12 10 10 10 8 11 10 11 7 7 10 9 7 3 3 3 3 2 1 1 1 2 3 3 4 5 5 6 6 6
10 10 10 10 11 11 11 10 10 10 10 10 10 9 10 9 8 6 8 12 14 11 9 9 9 9 5 4 3 3 3 2 1 0 2 3 2 3 4 4 5 5 6 6
10 10 10 10 10 8 11 11 11 11 11 10 11 10 9 7 7 8 9 9 14 10 9 10 10 8 4 3 3 3 2 1 2 2 1 2 3 3 4 4 4 5 5 6
10 7 7 7 6 7 7 8 7 8 9 9 8 8 7 6 9 9 9 11 10 12 9 8 6 5 4 3 4 3 2 4 3 1 2 2 3 4 4 4 5 5 5 5
7 6 7 6 5 6 6 6 8 8 8 9 9 8 9 8 9 10 11 10 9 8 8 6 5 4 4 4 4 4 2 3 3 2 1 2 3 3 3 4 4 5 5 5
Wind_Direction
276 287 285 277 270 268 261 263 258 281 280 291 297 295 298 334 136 168 188 183 184 181 182 208 202 107 28 32 17 17 30 28 38 166 166 12 21 25 33 20 15 14 23 25
286 276 269 268 262 264 259 266 270 277 281 277 285 346 282 319 155 181 187 186 181 179 172 180 137 54 50 38 22 24 37 31 28 28 24 28 26 29 33 35 26 19 20 32
268 271 280 259 234 242 263 264 266 270 284 314 309 301 307 196 186 179 187 185 172 168 149 138 108 85 55 48 45 31 40 36 31 31 30 25 24 28 32 32 32 29 24 24
272 287 272 277 216 247 255 265 269 281 339 315 335 355 345 204 175 181 171 167 146 155 142 137 121 92 84 51 61 51 29 33 33 30 34 30 27 27 30 31 34 32 30 25
252 253 268 263 246 251 312 297 293 321 320 1 3 290 161 143 166 164 158 157 158 157 154 152 129 119 89 51 53 55 60 31 25 28 35 31 30 25 26 33 27 36 32 31
232 249 266 245 181 107 315 282 45 344 354 342 327 284 72 174 142 135 147 152 154 156 165 157 154 136 110 97 78 48 68 62 40 35 39 31 27 32 28 29 33 37 39 35
236 256 264 279 70 37 251 7 320 333 320 318 301 20 115 149 143 153 153 150 145 157 161 142 145 150 141 128 119 67 58 54 68 35 65 60 36 30 38 35 31 24 45 50
233 252 262 265 113 237 340 293 283 301 319 317 278 140 170 153 157 162 155 145 163 154 142 147 157 166 136 109 88 80 74 63 48 41 31 33 38 28 33 35 40 30 30 39
233 246 66 200 254 279 288 296 309 322 320 268 176 169 158 145 170 163 159 161 160 156 149 150 157 162 122 104 88 84 69 61 47 49 35 30 36 33 28 27 28 33 29 27
277 279 286 305 303 300 302 299 306 305 291 209 197 174 160 166 178 173 165 162 162 152 162 152 131 134 111 101 97 89 75 61 54 59 22 37 28 41 41 24 20 24 19 28
255 255 275 280 284 330 316 287 264 283 264 241 180 180 176 178 174 174 165 162 167 168 158 150 144 129 122 120 116 93 78 63 58 38 28 41 75 37 40 53 29 18 17 12
256 253 255 281 314 302 283 264 255 216 214 201 189 177 175 173 174 172 167 166 170 161 157 148 142 131 116 112 116 115 87 64 30 29 23 20 9 125 112 113 90 58 59 29
274 270 262 263 279 281 251 224 203 199 200 192 186 174 177 167 171 169 163 172 173 162 152 152 139 123 94 81 81 64 70 49 58 16 13 11 4 358 352 154 148 100 64 49
260 263 258 275 268 247 234 195 180 182 190 192 172 165 159 164 162 169 170 171 161 152 153 144 129 118 100 89 95 91 91 66 12 19 8 359 355 351 347 353 348 360 88 49
262 264 268 268 285 209 203 178 182 181 180 174 160 157 163 171 167 166 162 146 144 138 127 125 135 139 140 133 122 101 59 51 351 8 26 331 335 342 349 345 345 347 344 22
260 259 263 225 227 212 195 189 192 182 173 172 162 165 172 161 161 155 152 159 162 162 156 136 146 139 141 138 138 153 149 82 341 344 358 349 351 346 347 345 337 351 351 19
266 249 219 218 215 204 195 191 192 178 175 169 156 161 152 136 128 130 124 119 102 122 125 146 138 134 127 155 232 84 0 75 346 304 14 358 347 355 347 344 342 345 353 59
250 246 224 224 207 186 181 182 175 164 166 154 138 129 133 147 157 144 141 128 128 136 153 140 141 138 147 146 279 65 9 21 16 359 2 12 353 354 347 342 348 344 345 351
237 205 206 198 182 170 168 166 159 154 141 138 141 143 144 150 145 150 148 147 151 156 148 146 146 152 141 110 239 104 70 18 33 45 358 302 310 350 349 350 348 341 343 343
158 162 166 163 153 150 133 118 121 128 134 144 144 147 156 148 149 151 156 166 174 169 146 153 170 144 126 125 271 98 78 64 24 48 50 332 12 332 342 345 334 341 341 343
80 92 95 99 100 104 119 128 134 150 157 154 158 158 155 149 150 155 164 162 128 144 149 157 158 145 142 138 177 97 102 118 68 33 353 348 331 339 342 347 345 338 340 336
107 111 113 116 116 114 120 134 137 143 148 154 143 142 141 149 157 174 177 171 149 154 154 161 151 126 115 162 112 120 114 97 62 7 6 347 341 332 338 341 339 336 332 334
121 124 118 121 130 129 128 130 136 144 146 144 146 150 163 159 167 166 167 142 143 171 157 120 116 126 136 121 119 123 116 129 115 68 359 354 337 349 334 334 345 321 330 333
124 127 123 122 128 131 129 133 134 135 135 141 146 161 150 158 163 170 142 139 145 156 114 128 139 140 146 125 134 132 167 148 174 196 43 217 336 335 333 331 326 327 326 326
127 127 130 140 141 135 134 140 132 133 141 138 148 152 160 156 162 123 126 131 133 130 122 133 138 143 137 144 147 158 161 161 36 310 356 347 327 334 325 336 323 332 319 308
144 141 142 151 132 140 142 151 145 153 145 146 150 154 141 123 114 122 124 143 148 133 136 149 150 157 137 143 148 168 176 127 201 120 333 311 341 310 326 326 313 311 320 324
122 128 135 125 135 140 155 162 151 158 155 156 150 144 128 122 132 139 144 145 146 139 139 130 144 155 140 159 156 157 182 124 20 1 326 322 310 319 324 314 317 323 316 312